Home   Weather   Turaif   Past weeks

Flag for Saudi Arabia Past Weather in Turaif, Saudi Arabia — Yesterday and Last 2 Weeks

Now
57 °F

Clear.


Feels Like: 57 °F
Forecast: 63 / 84 °F
Wind: 2 mph from East

Location: Turaif

Current Time: Apr 30, 2017 at 6:35:51 am

Latest Report: Apr 30, 2017 at 5:00 am


Visibility: 10 mi

Pressure: 29.95 "Hg (27.14 "Hg at 827m altitude)

Humidity: 27%

Dew Point: 23 °F

Location of TuraifLocation

Past Weather in Turaif — Graph

°F

Turaif Temperature Yesterday

Maximum temperature yesterday: 82 °F (at 2:00 pm)
Minimum temperature yesterday: 59 °F (at 5:00 am)
Average temperature yesterday: 71 °F

High & Low Weather Summary for the Past Weeks

 TemperatureHumidityPressure
High93 °F (Apr 22, 3:00 pm)100% (Apr 15, 6:00 am)30.21 "Hg (Apr 15, 6:00 am)
Low50 °F (Apr 15, 6:00 am)6% (Apr 29, 4:00 pm)29.86 "Hg (Apr 23, 10:00 am)
Average69 °F34%30.02 "Hg
* Reported Apr 15 5:00 am — Apr 30 5:00 am, Turaif, Weather by CustomWeather, © 2017

Note: Actual official high and low records may vary slightly from our data, if they occured in-between our weather recording intervals... More about our weather records

Advertising

Turaif Weather History for the Previous 24 Hours

Scroll right to see more
 ConditionsComfort  
Time TempWeatherWind HumidityBarometerVisibility
5:00 am
Sun, Apr 30
57 °FClear.2 mph27%29.95 "Hg10 mi
4:00 am57 °FClear.2 mph27%29.92 "Hg10 mi
3:00 am61 °FClear.5 mph23%29.92 "Hg10 mi
2:00 am63 °FClear.5 mph22%29.92 "Hg10 mi
1:00 am63 °FClear.5 mph20%29.92 "Hg10 mi
12:00 am64 °FClear.5 mph19%29.92 "Hg10 mi
11:00 pm
Sat, Apr 29
66 °FClear.5 mph18%29.92 "Hg10 mi
10:00 pm66 °FClear.5 mph17%29.92 "Hg10 mi
9:00 pm68 °FClear.5 mph16%29.92 "Hg10 mi
8:00 pm73 °FSunny.12 mph10%29.92 "Hg10 mi
7:00 pm77 °FSunny.12 mph9%29.92 "Hg10 mi
6:00 pm82 °FSunny.13 mph7%29.92 "Hg10 mi
5:00 pm82 °FSunny.14 mph7%29.92 "Hg10 mi
4:00 pm82 °FSunny.12 mph6%29.92 "Hg10 mi
3:00 pm82 °FSunny.9 mph7%29.92 "Hg10 mi
2:00 pm82 °FSunny.9 mph9%29.95 "Hg10 mi
1:00 pm81 °FSunny.12 mph11%29.95 "Hg10 mi
12:00 pm79 °FSunny.12 mph9%29.95 "Hg10 mi
11:00 am75 °FSunny.12 mph19%29.98 "Hg10 mi
10:00 am73 °FSunny.6 mph27%29.95 "Hg10 mi
9:00 am68 °FSunny.6 mph33%29.95 "Hg10 mi
8:00 am66 °FSunny.7 mph37%29.98 "Hg10 mi
7:00 am63 °FSunny.5 mph45%29.98 "Hg10 mi
6:00 am59 °FClear.5 mph51%29.98 "Hg10 mi
Weather by CustomWeather, © 2017

See weather overviewHow to use our weather pages